CST,Max TemperatureF,Mean TemperatureF,Min TemperatureF,Max Dew PointF,MeanDew PointF,Min DewpointF,Max Humidity, Mean Humidity, Min Humidity, Max Sea Level PressureIn, Mean Sea Level PressureIn, Min Sea Level PressureIn, Max VisibilityMiles, Mean VisibilityMiles, Min VisibilityMiles, Max Wind SpeedMPH, Mean Wind SpeedMPH, Max Gust SpeedMPH,PrecipitationIn, CloudCover, Events, WindDirDegrees
2013-2-1,25,18,10,13,5,-1,67,57,47,30.55,30.44,30.34,10,10,9,22,7,29,T,2,Snow,258
2013-2-2,41,33,25,25,20,15,78,64,50,30.33,30.17,30.07,10,10,5,16,8,20,T,7,Snow,235
2013-2-3,33,27,20,27,23,16,92,75,58,30.20,30.08,30.01,10,6,1,20,5,25,0.07,7,Snow,294
2013-2-4,43,32,20,38,29,16,92,78,64,30.14,29.95,29.85,10,10,5,16,7,21,0.09,5,Rain,191
2013-2-5,52,39,26,36,30,24,92,71,50,30.11,29.99,29.92,10,8,3,16,5,20,0.00,2,,274
2013-2-6,47,36,25,30,27,22,85,67,49,30.29,30.22,30.13,10,9,4,12,3,14,0.00,0,,61
2013-2-7,65,48,30,52,41,26,86,65,44,30.14,29.95,29.86,10,8,4,18,7,26,0.15,5,Rain,268
2013-2-8,46,40,34,43,29,25,89,77,64,30.40,30.23,29.93,10,10,9,18,11,29,0.01,8,Rain,352
2013-2-9,46,37,27,29,26,23,92,71,49,30.42,30.31,30.14,10,10,9,10,4,16,0.00,4,,101
2013-2-10,54,48,41,49,42,28,83,68,53,30.11,29.90,29.76,10,9,2,22,10,32,0.38,7,Rain-Thunderstorm,159
2013-2-11,52,42,32,48,29,25,89,64,38,30.16,30.04,29.83,10,10,10,28,12,35,0.00,0,,252
2013-2-12,50,39,27,33,28,23,85,66,46,30.19,30.08,29.91,10,10,10,9,1,10,0.00,1,,24
2013-2-13,46,40,33,33,31,29,89,74,58,29.94,29.90,29.84,10,6,1,14,8,21,0.13,6,Snow,315
2013-2-14,58,47,35,37,34,30,92,68,43,30.06,29.95,29.91,10,9,6,17,9,23,0.00,3,,235
2013-2-15,43,34,25,31,25,17,85,63,40,30.25,30.18,30.06,10,10,10,20,6,25,0.00,4,,313
2013-2-16,35,29,22,20,14,9,81,59,36,30.24,30.20,30.18,10,10,10,20,8,26,0.00,1,,309
2013-2-17,42,30,17,19,16,13,80,57,33,30.30,30.21,30.12,10,10,10,12,4,14,0.00,0,,134
2013-2-18,63,49,34,45,35,19,86,59,32,30.11,29.88,29.70,10,9,5,33,14,43,0.59,5,Rain,184
2013-2-19,42,34,25,36,21,14,82,63,44,30.29,30.07,29.83,10,10,10,26,16,33,T,4,Rain,285
2013-2-20,29,25,20,15,13,8,68,61,53,30.41,30.34,30.29,10,10,10,14,7,20,0.00,0,,342
2013-2-21,34,28,21,31,22,14,89,72,54,30.33,30.13,29.87,10,8,2,20,10,28,0.47,5,Rain-Snow,73
2013-2-22,46,40,33,36,32,24,92,79,65,30.08,29.97,29.83,10,8,2,22,10,28,0.03,8,Rain,239
2013-2-23,43,34,25,24,22,19,81,63,45,30.08,30.04,29.99,10,10,10,13,3,15,0.00,0,,302
2013-2-24,48,35,21,26,23,19,92,65,38,30.19,30.12,30.06,10,9,4,7,2,10,0.00,0,,50
2013-2-25,52,40,27,27,25,22,81,60,38,30.11,29.94,29.62,10,10,9,20,10,25,0.00,2,,65
2013-2-26,50,45,40,45,39,25,96,69,42,29.62,29.46,29.38,10,8,1,23,11,30,0.79,8,Rain,156
2013-2-27,40,37,33,36,30,27,85,72,59,29.87,29.78,29.64,10,9,2,24,14,30,0.03,8,Rain-Snow,253
2013-2-28,38,36,33,32,29,27,89,82,75,30.07,29.98,29.85,10,8,3,17,10,23,0.03,8,Snow,280